Regional Weather Roundup
Issued by NWS

Home | Current Version | Previous Version | Text Only | Print | Product List | Glossary On
Versions: 1 2 3 4 5 6 7 8 9 10 11 12 13 14 15 16 17 18 19 20 21 22 23 24 25 26 27 28 29 30 31 32 33 34 35 36 37 38 39 40 41 42 43 44 45 46 47 48 49 50
000
ASUS44 KJAN 292310
RWRMS

MISSISSIPPI HOURLY WEATHER ROUNDUP
NATIONAL WEATHER SERVICE JACKSON MS
600 PM CDT FRI APR 29 2016

NOTE: "FAIR: INDICATES FEW OR NO CLOUDS BELOW 12,000 FEET WITH NO
SIGNIFICANT WEATHER AND/OR OBSTRUCTIONS TO VISIBILITY.

MSZ001>002-007>008-010>013-018>021-025>028-034>036-300000-
NORTHWEST MISSISSIPPI

CITY           SKY/WX    TMP DP  RH WIND       PRES   REMARKS
BATESVILLE     FAIR      66  63  89 E6        29.90F
CLEVELAND      DRIZZLE   68  68 100 E9        29.83F
GREENWOOD      LGT RAIN  70  67  90 E8        29.87F
GREENVILLE     CLOUDY    71  67  87 E12       29.81F
OLIVE BRANCH   LGT RAIN  63  63 100 E10G17    29.88F
OXFORD         FAIR      63  61  94 E6        29.93F
TUNICA         MOCLDY    63  63 100 SE13G18   29.87S
WINONA         FAIR      68  67  97 NE7       29.90F
$$

MSZ003>006-009-014>017-022>024-029>033-037>039-300000-
NORTHEAST MISSISSIPPI

CITY           SKY/WX    TMP DP  RH WIND       PRES   REMARKS
COLUMBUS AFB   TSTM      64  63  94 NE7       29.94R FOG
CORINTH        FAIR      64  61  88 E13       29.92F
GOLDN TRIANGLE TSTM      66  61  82 NE12      29.93R
TUPELO         CLOUDY    65  61  87 NE12      29.94F
$$

MSZ040-058-300000-
CENTRAL MISSISSIPPI

CITY           SKY/WX    TMP DP  RH WIND       PRES   REMARKS
JACKSON INTL   CLOUDY    83  69  62 E6        29.85S
JACKSON HAWKNS CLOUDY    83  68  60 E7        29.84F
MADISON        FAIR      79  72  78 CALM      29.85F
MERIDIAN KEY   CLOUDY    82  69  64 S5        29.87F
MERIDIAN NAS   MOSUNNY   82  67  60 S5        29.88F
VICKSBURG TVR  CLOUDY    80  71  74 NE15      29.79F
VICKSBURG VKS  PTCLDY    84  68  58 CALM      29.79F
$$

MSZ059>079-300000-
SOUTH MISSISSIPPI

CITY           SKY/WX    TMP DP  RH WIND       PRES   REMARKS
BROOKHAVEN     FAIR     N/A N/A N/A SE10      29.85S
COLUMBIA       FAIR      82  68  61 S12       29.90S
HATTIESBURG    MOSUNNY   83  65  54 SE13G18   29.88S
MCCOMB         MOSUNNY   81  68  64 SE12G21   29.84F
NATCHEZ        CLOUDY    84  66  54 SE9       29.79F
PINE BELT      SUNNY     82  64  54 S9        29.89F
$$

MSZ080>082-300000-
COASTAL MISSISSIPPI

CITY           SKY/WX    TMP DP  RH WIND       PRES   REMARKS
BAY ST LOUIS   PTSUNNY   79  68  69 SE8       29.88S
BILOXI         MOSUNNY   79  75  89 SE9       29.88S
PASCAGOULA     MOSUNNY   79  72  79 S7        29.90R
GULFPORT       PTSUNNY   78  72  81 SE13      29.88S
$$



USA.gov is the U.S. government's official web portal to all federal, state and local government web resources and services.